Погода в Скорнякове

Россия / Липецкая область     52°40′20″N   38°55′21″E
темп.,
°C
ветер,
м/с
пор.,
м/с
влажн.,
%
обл.,
%
осадки,
мм/ч
давл.,
гПа
погр.,
м
26 февраля, пт
пт2600:00+2зсз51099100 0.2 1017264
03:00+2з410100100 0.2 1017260
06:00+2з511100100 0.8 1016275
09:00+2з512100100 0.9 1014282
12:00+3зюз715100100 0.0 1013390
15:00+3з816100100 0.2 1011490
18:00+2з614100100 0.1 1009368
21:00+2з61496100 0.1 1009586
27 февраля, сб
сб2700:00+1з51292100 0.0 1008531
03:00+1з51290100 0.0 1008524
06:00+1з61293100 0.0 1006478
09:00+1зсз61198100 0.1 1006573
12:00+1з61296100 0.1 1006515
15:00+1зсз6129798 0.1 1007596
18:00+1сз5119598 0.1 1008595
21:00−5с4119099 0.2 1011393
28 февраля, вс
вс2800:00−7с389324 0.0 1013327
03:00−9ссз379531 0.0 1015251
06:00−9ссз379462 0.0 1016307
09:00−9ссз479165 0.0 1017411
12:00−7ссз469091 0.0 1017495
15:00−5ссз468996 0.1 1018592
18:00−6с3694100 0.1 1019295
21:00−7ссв229591 0.1 102145
1 марта, пн
пн100:00−9ссв229580 0.0 102224
03:00−10ссз229578 0.1 102322
06:00−10ссз229564 0.0 102422
09:00−8ссз129664 0.0 102688
12:00−6с118966 0.0 1027303
15:00−4сз228779 0.1 1028455
18:00−6з229190 0.0 102921
21:00−7зюз339346 0.0 102938
2 марта, вт
вт200:00−6зюз369482 0.0 1029107
03:00−5зюз499491 0.0 1027216
06:00−3зюз61294100 0.1 1024447
09:00−1з71393100 0.1 1022534
12:00+1з71394100 0.0 1019749
15:00+1зсз61396100 0.1 1018614
18:000сз61392100 0.1 1017632
21:00−1ссз6139199 0.3 1019620